EW1131 Weather Reports


time (UTC)temp
C
wind
direction
speed
KPH
gust
KPH
rain 1hr
cm
rain 24hr
cm
rain mn
cm
humidity
%
barometer
mb
20200221023117 3 289 9.7 19.3 0.00 0.79 0.20 93 1009.8
20200221021547 2 290 9.7 20.9 0.03 0.79 0.20 93 1009.5
20200221020034 2 279 9.7 20.9 0.03 0.79 0.20 93 1009.2
20200221014522 2 298 8.0 20.9 0.03 0.79 0.20 93 1009.0
20200221013045 3 278 11.3 25.7 0.03 0.79 0.20 93 1008.6
20200221011509 3 235 12.9 24.1 0.03 0.76 0.18 94 1008.3
20200221010031 3 298 11.3 22.5 0.08 0.76 0.18 94 1007.8
20200221004602 3 263 11.3 35.4 0.08 0.76 0.18 94 1007.3
20200221003149 3 281 17.7 37.0 0.10 0.76 0.18 94 1006.9
20200221001650 3 304 16.1 29.0 0.10 0.76 0.18 94 1006.6
20200221000017 3 302 14.5 29.0 0.10 0.69 0.10 94 1006.1
20200220234525 3 323 12.9 29.0 0.08 0.66 0.10 94 1005.8
20200220233011 3 288 12.9 40.2 0.08 0.66 0.08 94 1005.5
20200220231540 4 293 22.5 38.6 0.08 0.66 0.08 94 1004.9
20200220230023 4 281 16.1 29.0 0.03 0.58 0.00 94 1004.3
20200220224522 4 299 14.5 22.5 0.03 0.58 0.58 94 1003.8
20200220223136 4 298 16.1 32.2 0.03 0.58 0.58 94 1003.5
20200220221607 5 294 14.5 33.8 0.03 0.58 0.58 93 1003.0
20200220220226 5 273 24.1 54.7 0.05 0.56 0.56 93 1002.1
20200220214645 6 236 19.3 41.8 0.10 0.56 0.56 94 1001.0
20200220213111 6 188 16.1 32.2 0.13 0.56 0.56 94 1000.9
20200220211507 6 196 11.3 30.6 0.18 0.53 0.56 94 1001.2
20200220210201 6 206 11.3 29.0 0.20 0.51 0.51 94 1001.4
20200220203031 6 188 11.3 25.7 0.15 0.41 0.43 93 1001.8
20200220201600 6 206 14.5 30.6 0.15 0.36 0.36 92 1002.2
20200220200023 6 190 9.7 22.5 0.10 0.30 0.30 91 1002.3
20200220193043 6 174 11.3 29.0 0.05 0.25 0.25 90 1002.8
20200220191651 7 184 8.0 19.3 0.00 0.20 0.20 88 1003.1
20200220190012 7 182 6.4 24.1 0.00 0.23 0.20 88 1003.3
20200220184533 7 196 6.4 20.9 0.00 0.23 0.20 88 1003.7
20200220183034 7 181 9.7 24.1 0.00 0.23 0.20 89 1004.0
20200220180006 7 178 9.7 25.7 0.00 0.23 0.20 91 1004.6
20200220174536 6 171 11.3 20.9 0.00 0.36 0.20 91 1004.9
20200220173105 6 184 8.0 22.5 0.00 0.36 0.20 92 1005.2
20200220171535 6 176 8.0 20.9 0.00 0.36 0.20 92 1005.7
20200220170119 6 150 9.7 20.9 0.00 0.36 0.20 92 1006.0
20200220164642 7 161 11.3 20.9 0.00 0.43 0.20 91 1006.3
20200220161715 7 190 6.4 19.3 0.00 0.43 0.20 91 1006.6
20200220160025 7 183 11.3 25.7 0.00 0.43 0.20 90 1006.8
20200220154554 7 193 11.3 22.5 0.00 0.43 0.20 90 1007.1
20200220153053 7 197 9.7 29.0 0.00 0.43 0.20 90 1007.1
20200220151532 7 167 11.3 24.1 0.00 0.43 0.20 91 1007.6
20200220144512 7 202 11.3 25.7 0.00 0.43 0.20 92 1008.2
20200220143036 7 159 9.7 25.7 0.00 0.43 0.20 92 1008.3
20200220141552 7 175 12.9 20.9 0.00 0.43 0.20 92 1008.8
20200220140006 7 227 9.7 22.5 0.00 0.43 0.20 93 1008.9
20200220134530 7 198 11.3 30.6 0.00 0.43 0.20 94 1009.0
20200220133152 7 211 11.3 22.5 0.00 0.43 0.20 94 1009.3
20200220131529 7 213 9.7 32.2 0.00 0.43 0.20 95 1009.3
20200220130043 7 190 6.4 25.7 0.00 0.43 0.20 95 1009.6
20200220124652 7 182 9.7 20.9 0.00 0.46 0.20 95 1009.8
20200220123121 6 201 9.7 25.7 0.00 0.46 0.20 95 1010.0
20200220121512 6 209 9.7 20.9 0.00 0.46 0.20 95 1010.2
20200220120045 6 192 6.4 24.1 0.00 0.46 0.20 96 1010.3
20200220113145 6 178 12.9 24.1 0.00 0.48 0.20 96 1010.8
20200220111636 6 186 11.3 20.9 0.00 0.48 0.20 96 1011.1
20200220110158 6 192 11.3 22.5 0.00 0.48 0.20 95 1011.4
20200220104534 6 163 9.7 20.9 0.00 0.66 0.20 96 1011.6
20200220101552 5 190 11.3 20.9 0.00 0.66 0.20 96 1011.7
20200220100106 5 194 11.3 22.5 0.03 0.66 0.20 96 1011.8
20200220094549 5 201 6.4 17.7 0.05 0.66 0.20 96 1011.8
20200220093153 5 175 4.8 14.5 0.05 0.66 0.20 95 1011.9
20200220090101 4 165 8.0 16.1 0.08 0.64 0.18 95 1012.3
20200220084513 4 173 11.3 17.7 0.05 0.61 0.15 95 1012.4
20200220083200 3 181 3.2 16.1 0.05 0.61 0.15 95 1012.6
20200220081520 3 159 9.7 16.1 0.05 0.58 0.13 95 1012.6
20200220080310 3 192 4.8 16.1 0.03 0.56 0.10 95 1012.8
20200220074704 3 182 9.7 20.9 0.05 0.56 0.10 95 1012.9
20200220073025 3 165 6.4 16.1 0.05 0.56 0.10 95 1012.9
20200220071648 3 162 3.2 16.1 0.03 0.53 0.08 95 1013.0
20200220070029 2 187 9.7 20.9 0.03 0.53 0.08 95 1012.9
20200220064619 2 162 6.4 17.7 0.03 0.51 0.05 95 1013.1
20200220063015 2 151 8.0 16.1 0.03 0.51 0.05 95 1013.1
20200220061642 2 178 8.0 17.7 0.03 0.51 0.05 95 1013.2
20200220054516 2 150 8.0 17.7 0.03 0.51 0.03 95 1013.4
20200220053113 2 182 8.0 16.1 0.03 0.51 0.03 95 1013.4
20200220051613 2 175 6.4 16.1 0.03 0.51 0.03 94 1013.5
20200220050135 2 185 6.4 16.1 0.03 0.51 0.03 94 1013.6
20200220044502 2 172 6.4 14.5 0.00 0.48 0.00 93 1013.8
20200220043052 2 184 4.8 12.9 0.00 0.48 0.00 93 1013.9
20200220041648 2 161 4.8 12.9 0.00 0.48 0.00 92 1014.1
20200220040208 2 204 9.7 20.9 0.00 0.48 0.00 90 1014.4
20200220034525 2 198 8.0 16.1 0.00 0.61 0.00 90 1014.4
20200220033032 2 163 4.8 16.1 0.00 0.61 0.00 90 1014.5
20200220031543 2 194 6.4 14.5 0.00 0.61 0.00 91 1014.6
20200220030141 2 159 6.4 17.7 0.00 0.61 0.00 92 1015.0